Starlink 30363

operational
NORAD ID: 57744 Int'l Des: 2023-131 Owner: SPXS Country: US Constellation: starlink
LEOCIRCULAR

关于 Starlink 30363

正在加载描述...

实时位置

正在加载3D地球...

即将过境

高度历史

Altitude vs Time

uPlot chart will show altitude changes over time

两行轨道根数

1 57744U 23131N 25351.40503003 -.00002326 00000-0 -15720-3 0 9991
2 57744 43.0017 246.3699 0001008 263.2835 96.7893 15.02528482127695
Epoch: Dec 17, 2025 • Age: 26 hours

当前状态

高度 560.3 km
速度 7.59 km/s
星下点 30.64°N, 20.47°E
发射日期 Sep 1, 2023
运行时间 2.2 years
类型 internet

技术详情

分类 Payload
质量 730.00 kg
干质量 700.00 kg
总质量 730.00 kg
长度 0.30 m
直径 4.10 m
跨度 29.00 m
形状 Box + pan
制造商 SPXS
平台类型 Starlink V2M
阶段状态 In Orbit
所有者/国家 SPXS/US

大型星座

Loading constellations...